Weather in Cheremushka

Russia / Republic of Khakassia     54°27′38″N   91°00′04″E
temp.,
°C
wind,
m/s
gust,
m/s
humid.,
%
clouds,
%
prec.,
mm/h
press.,
hPa
HPBL,
m
25 january, tue
tue2501:00−23se22100100 0.1 104137
04:00−21se23100100 0.1 103972
07:00−21se22100100 0.1 103945
10:00−21se22100100 0.1 103856
13:00−18se2396100 0.1 1036190
16:00−17se2396100 0.0 1034186
19:00−17se2297100 0.2 103497
22:00−16se2297100 0.8 103389
26 january, wed
wed2601:00−16se2298100 1.0 103329
04:00−16se1198100 0.1 103321
07:00−16se2298100 0.3 103328
10:00−16se2297100 0.1 103484
13:00−13se2393100 0.1 1033206
16:00−13ese2295100 0.0 1032115
19:00−14ese1197100 0.3 103218
22:00−15e0197100 0.0 10339
27 january, thu
thu2701:00−16wnw009899 0.0 10339
04:00−18nw119899 0.0 10359
07:00−18nw119898 0.0 10369
10:00−17nw119785 0.0 103717
13:00−13nnw1190100 0.0 1037106
16:00−14nnw119473 0.0 10389
19:00−20nnw11100100 0.0 104010
22:00−20nw11100100 0.0 104110
28 january, fri
fri2801:00−20nw2110094 0.0 104110
04:00−20wnw1199100 0.1 104114
07:00−20wnw2199100 0.1 104118
10:00−18wnw119899 0.1 104137
13:00−15nw119394 0.1 1039129
16:00−16wnw009749 0.0 10399
19:00−22nw1110078 0.0 10409
22:00−24nw1110097 0.0 10409
29 january, sat
sat2901:00−26nw11100100 0.1 10409
04:00−26se01100100 0.1 10409
07:00−26se1110099 0.1 10419
10:00−23se22100100 0.1 104143
13:00−19se229895 0.1 1040138
16:00−19se2297100 0.0 1040103
19:00−25se1110070 0.0 10429
22:00−26se1110078 0.0 10429